Terminal Aerodrome Forecast
Issued by NWS Mt. Holly, NJ

Home | Current Version | Previous Version | Text Only | Print | Product List | Glossary On
Versions: 1 2 3 4 5 6 7 8 9 10 11 12 13 14 15 16 17 18 19 20 21 22 23 24 25 26 27 28 29 30 31 32 33 34 35 36 37 38 39 40 41 42 43 44 45 46 47 48 49 50
000
FTAK31 PANC 211741
TAFABE
TAF
PABE 211741Z 2118/2218 33008KT 1/2SM FZFG OVC002
      TEMPO 2118/2120 6SM BR SCT002 BKN035
     FM212000 02005KT 6SM BR BKN035
     FM212200 01007KT P6SM SCT030 BKN060
     FM221200 35006KT P6SM BKN015=

USA.gov is the U.S. government's official web portal to all federal, state and local government web resources and services.